433  
ASUS44 KMEG 271210  
RWRMEG  
MEMPHIS CWA HOURLY WEATHER ROUNDUP  
NATIONAL WEATHER SERVICE MEMPHIS TN  
700 AM CDT MON MAR 27 2017  
   
..WEST TENNESSEE
 
 
 
CITY SKY/WX TMP DP RH WIND PRES REMARKS
 
MEMPHIS INTL CLOUDY 64 53 67 S9 29.89F  
6HR MIN TEMP: 60; 6HR MAX TEMP: 69; 6HR PCP: TRACE;  
 
NWS MEMPHIS N/A 66 N/A N/A MISG N/A  
JACKSON CLOUDY 63 56 78 S7 29.92R  
6HR MIN TEMP: 52; 6HR MAX TEMP: 65; 6HR PCP: 0.18;  
 
SOMERVILLE PTCLDY 64 61 88 S6 29.92R  
BOLIVAR MOCLDY 63 59 88 S6 29.94R  
SAVANNAH CLOUDY 64 61 88 S7 29.96R  
DYERSBURG CLOUDY 64 54 69 SW12G20 29.90F  
6HR MIN TEMP: 56; 6HR MAX TEMP: 65; 6HR PCP: TRACE;  
 
PARIS CLOUDY 57 55 94 S7 29.94R  
HUNTINGDON CLOUDY 59 59 100 CALM 29.93R  
 
   
..EASTERN ARKANSAS
 
 
 
CITY SKY/WX TMP DP RH WIND PRES REMARKS
 
JONESBORO CLOUDY 58 55 90 SW6 29.84F  
6HR MIN TEMP: 56; 6HR MAX TEMP: 64; 6HR PCP: 0.01;  
 
WEST MEMPHIS CLOUDY 60 57 89 S8 29.88F  
6HR MIN TEMP: 59; 6HR MAX TEMP: 67; 6HR PCP: TRACE;  
 
BATESVILLE CLOUDY 57 54 88 CALM 29.84R  
6HR MIN TEMP: 57; 6HR MAX TEMP: 63; 6HR PCP: 0.28;  
 
NEWPORT CLOUDY 57 56 96 MISG N/A  
6HR MIN TEMP: 57; 6HR MAX TEMP: 64;  
 
WALNUT RIDGE CLOUDY 57 54 88 S8 29.84S  
6HR MIN TEMP: 57; 6HR MAX TEMP: 61; 6HR PCP: 0.23;  
 
BLYTHEVILLE CLOUDY 60 56 86 S12 29.87F  
6HR MIN TEMP: 57; 6HR MAX TEMP: 65; 6HR PCP: 0.01;  
 
STUTTGART MOCLDY 61 50 67 SE10 29.87F  
6HR MIN TEMP: 59; 6HR MAX TEMP: 66; 6HR PCP: 0.14;  
 
PINE BLUFF PTCLDY 60 57 89 SE9 29.87F  
6HR MIN TEMP: 59; 6HR MAX TEMP: 69; 6HR PCP: 0.01;  
 
MONTICELLO N/A 66 50 57 MISG 29.89F  
6HR MIN TEMP: 66; 6HR MAX TEMP: 70; 6HR PCP: TRACE;  
 
   
..NORTH MISSISSIPPI
 
 
 
CITY SKY/WX TMP DP RH WIND PRES REMARKS
 
TUPELO CLOUDY 62 59 90 SE7 29.98R  
6HR MIN TEMP: 58; 6HR MAX TEMP: 63;  
 
OXFORD CLOUDY 64 59 82 S12G18 29.97F  
BATESVILLE MOCLDY 67 62 84 SW8 29.95F  
6HR MIN TEMP: 56; 6HR MAX TEMP: 68;  
 
OLIVE BRANCH MOCLDY N/A N/A N/A W7 29.90  
TUNICA MOCLDY 64 61 88 S8 29.90F  
CLARKSDALE PTCLDY 68 68 100 S9 29.93F  
GREENWOOD CLOUDY 67 64 90 S9 29.95F  
6HR MIN TEMP: 65; 6HR MAX TEMP: 69;  
 
COLUMBUS CLOUDY 64 63 95 S6 30.00R  
6HR MIN TEMP: 64; 6HR MAX TEMP: 67; 6HR PCP: TRACE;  
 
STARKVILLE CLOUDY 63 61 94 SE6 30.00S  
GOLDEN TRIANGL CLEAR 64 57 77 S8 29.96F  
 
   
..SOUTHEAST MISSOURI
 
 
 
CITY SKY/WX TMP DP RH WIND PRES REMARKS
 
KENNETT CLOUDY 61 57 88 SW14 29.85R  
MALDEN CLOUDY 57 54 88 S5 29.84R  
WEST PLAINS LGT RAIN 56 54 93 SW3 29.84F FOG  
6HR MIN TEMP: 55; 6HR MAX TEMP: 59; 6HR PCP: 0.53;  
 
POPLAR BLUFF CLOUDY 56 55 97 CALM 29.82S  
6HR MIN TEMP: 53; 6HR MAX TEMP: 61; 6HR PCP: 0.26;  
 
CAPE GIRARDEAU CLOUDY 55 52 89 E10 29.84F  
6HR MIN TEMP: 48; 6HR MAX TEMP: 57; 6HR PCP: 0.16;  
 
   
..NORTHWEST ALABAMA
 
 
 
CITY SKY/WX TMP DP RH WIND PRES REMARKS
 
MUSCLE SHOALS CLOUDY 65 60 84 S10 30.01R  
6HR MIN TEMP: 57; 6HR MAX TEMP: 65;  
 
   
..MIDDLE TENNESSEE
 
 
 
CITY SKY/WX TMP DP RH WIND PRES REMARKS
 
NASHVILLE MOCLDY 64 58 80 SW7 29.97R  
6HR MIN TEMP: 58; 6HR MAX TEMP: 64;  
 
CLARKSVILLE TSTM 55 51 86 S7 29.96R  
6HR MIN TEMP: 51; 6HR MAX TEMP: 54; 6HR PCP: TRACE;  
 
COLUMBIA CLEAR N/A N/A N/A S8 29.96R  
 
   
..WESTERN KENTUCKY
 
 
 
CITY SKY/WX TMP DP RH WIND PRES REMARKS
 
PADUCAH TSTM 57 51 80 S7 29.92R  
6HR MIN TEMP: 50; 6HR MAX TEMP: 57; 6HR PCP: 0.03;  
 
FORT CAMPBELL TSTM 55 55 100 S9 29.95R  
6HR MIN TEMP: 50; 6HR MAX TEMP: 55; 6HR PCP: TRACE;  
 
   
..CENTRAL ARKANSAS
 
 
 
CITY SKY/WX TMP DP RH WIND PRES REMARKS
 
LITTLE ROCK MOCLDY 56 56 100 S7 29.84F  
6HR MIN TEMP: 56; 6HR MAX TEMP: 68; 6HR PCP: 0.22;  
 
SKY/WX REPORTED AS FAIR MEANS FEW OR NO CLOUDS BELOW  
12 THOUSAND FEET.  
 
 
 
CLICK HERE TO GO TO PREVIOUS BULLETINS.

The Nexlab TN Page
The Nexlab MS Page
The Nexlab AR Page Main Text Page